19:19
Airports
History
Links
Donate
Help keep this website running!
PayPal
Bitcoin
This page is community maintained. The information is intended for PC simulator navigation or reference.
Always use approved charts for navigation.
CNC7
Nipissing on 654
Nipissing on 654 (CNC7)
Nipissing, Ontario, Canada
4
Lat/Lng:46° 6' 39.41" N / 79° 29' 34.05" W
46.110948 / -79.492793
Elevation:690'ft / 210mMSL
ID / ICAO:CNC7
Runways:1
Longest:17L-35R
Grass 418m / 1,373ft
Nearby Weather19:00 GMT 2017-11-18
Nearby weather at CYYB, North Bay located 17.8 nautical miles from CNC7
Altimeter: 29.40
Visibility: 15.0 statute miles
Wind: 10 knots (from 070°)
Temp: -1°c / 30°f
Humidity: 92.9%

METAR: CYYB 181900Z 07010KT 15SM OVC011 M01/M02 A2940 RMK SC8 PRESFR SLP974

(Powered by phpweather)
Nearby VORs <50NM
Nearby NDBs
Runway 17L / 35R
Dimensions:418.4 x 18m 1373' x 59'ft
Surface:Grass
Runway 17L [A]Runway 35R [B]
Heading:156°TH 336°TH
Lat:
Lng:
46° 6' 45.65"N
79° 29' 37.92"W
46° 6' 33.17"N
79° 29' 30.19"W
User Notes and Comments
46° 6' 39.41" N / 79° 29' 34.05" W
Distance To
Airport ID:
Nearby Airports
4 Trout Creek Chalet 10.5 NM
CTC1 SSE 154°
4 Corbeil Bertha Rd 12.6 NM
CB01 NE 50°
(C) North Bay 17.8 NM
CYYB ( WX ) N 10°
(C) South River-Sundridge 21.1 NM
CPE6 SSE 160°
4 Arnstein 24.5 NM
CNR9 WSW 238°
(C) Mattawa (Earl Lake) 37.9 NM
CMA2 ENE 69°
4 Emsdale 39.4 NM
CNA4 S 169°
VFR Chart
Flight Planning at SkyVector.com